N303JN KCRG-KTPA

Flight info

Callsign N303JN
Flight time 0h 55m
Altitude 4500
Route VFR
Aircraft K100/L-VOL/L

Departure

Time 2026-04-20 01:21
Airport Jacksonville Executive at Craig Airport (KCRG)

Arrival

Time 2026-04-20 02:17
Airport Tampa International Airport (KTPA)
Time Latitude Longitude Altitude Speed Heading
2026-04-20 01:12 30.33805 -81.51654 33 ft 0 kts 227°
2026-04-20 01:14 30.33804 -81.51655 42 ft 1 kts 205°
2026-04-20 01:14 30.33802 -81.51651 33 ft 1 kts 88°
2026-04-20 01:14 30.33814 -81.51632 42 ft 4 kts 17°
2026-04-20 01:15 30.33822 -81.51605 42 ft 6 kts 75°
2026-04-20 01:15 30.33849 -81.51561 43 ft 8 kts 45°
2026-04-20 01:15 30.33835 -81.51505 43 ft 10 kts 130°
2026-04-20 01:15 30.33780 -81.51439 44 ft 13 kts 135°
2026-04-20 01:16 30.33708 -81.51361 45 ft 16 kts 158°
2026-04-20 01:16 30.33657 -81.51364 45 ft 6 kts 232°
2026-04-20 01:16 30.33612 -81.51394 45 ft 7 kts 139°
2026-04-20 01:16 30.33600 -81.51386 45 ft 0 kts 181°
2026-04-20 01:19 30.33570 -81.51381 45 ft 7 kts 150°
2026-04-20 01:19 30.33588 -81.51328 46 ft 9 kts 43°
2026-04-20 01:19 30.33624 -81.51259 46 ft 11 kts 81°
2026-04-20 01:19 30.33642 -81.51166 46 ft 13 kts 53°
2026-04-20 01:20 30.33700 -81.51129 46 ft 7 kts 324°
2026-04-20 01:20 30.33845 -81.51281 45 ft 62 kts 317°
2026-04-20 01:20 30.34252 -81.51790 210 ft 100 kts 317°
2026-04-20 01:20 30.34780 -81.52449 424 ft 124 kts 318°
2026-04-20 01:21 30.35153 -81.53425 610 ft 146 kts 278°
2026-04-20 01:21 30.34766 -81.54540 830 ft 161 kts 229°
2026-04-20 01:21 30.33715 -81.54999 1064 ft 170 kts 176°
2026-04-20 01:21 30.32595 -81.54647 1319 ft 170 kts 158°
2026-04-20 01:22 30.31455 -81.54209 1581 ft 175 kts 159°
2026-04-20 01:22 30.30281 -81.53767 1835 ft 179 kts 160°
2026-04-20 01:22 30.29078 -81.53415 2083 ft 179 kts 173°
2026-04-20 01:22 30.27852 -81.53531 2337 ft 178 kts 199°
2026-04-20 01:23 30.26693 -81.54050 2595 ft 179 kts 205°
2026-04-20 01:23 30.25539 -81.54594 2843 ft 179 kts 203°
2026-04-20 01:23 30.24371 -81.55116 3093 ft 178 kts 202°
2026-04-20 01:23 30.23215 -81.55630 3325 ft 178 kts 202°
2026-04-20 01:24 30.22064 -81.56141 3571 ft 176 kts 202°
2026-04-20 01:24 30.20922 -81.56650 3847 ft 174 kts 202°
2026-04-20 01:24 30.19810 -81.57145 4089 ft 173 kts 202°
2026-04-20 01:24 30.18692 -81.57642 4337 ft 170 kts 202°
2026-04-20 01:25 30.17582 -81.58135 4503 ft 175 kts 202°
2026-04-20 01:25 30.16418 -81.58654 4502 ft 182 kts 202°
2026-04-20 01:25 30.15217 -81.59187 4504 ft 187 kts 202°
2026-04-20 01:25 30.13997 -81.59727 4502 ft 188 kts 202°
2026-04-20 01:26 30.12769 -81.60271 4500 ft 189 kts 202°
2026-04-20 01:26 30.11545 -81.60817 4496 ft 186 kts 202°
2026-04-20 01:26 30.10346 -81.61349 4496 ft 183 kts 202°
2026-04-20 01:26 30.09159 -81.61876 4491 ft 183 kts 202°
2026-04-20 01:27 30.07990 -81.62396 4328 ft 180 kts 202°
2026-04-20 01:27 30.06834 -81.62907 4173 ft 177 kts 202°
2026-04-20 01:27 30.05689 -81.63414 4015 ft 175 kts 202°
2026-04-20 01:27 30.04561 -81.63914 3863 ft 172 kts 201°
2026-04-20 01:28 30.03444 -81.64408 3710 ft 171 kts 202°
2026-04-20 01:28 30.02333 -81.64902 3557 ft 170 kts 202°
2026-04-20 01:28 30.01231 -81.65390 3408 ft 170 kts 201°
2026-04-20 01:28 30.00120 -81.65882 3259 ft 171 kts 202°
2026-04-20 01:29 29.99010 -81.66374 3107 ft 171 kts 202°
2026-04-20 01:29 29.97899 -81.66863 2956 ft 171 kts 202°
2026-04-20 01:29 29.96786 -81.67356 2807 ft 172 kts 202°
2026-04-20 01:29 29.95663 -81.67853 2658 ft 174 kts 203°
2026-04-20 01:30 29.94533 -81.68354 2508 ft 174 kts 204°
2026-04-20 01:30 29.93432 -81.68838 2492 ft 165 kts 204°
2026-04-20 01:30 29.92374 -81.69304 2494 ft 161 kts 204°
2026-04-20 01:30 29.91346 -81.69760 2485 ft 159 kts 203°
2026-04-20 01:31 29.90324 -81.70212 2477 ft 156 kts 203°
2026-04-20 01:31 29.89317 -81.70656 2474 ft 154 kts 202°
2026-04-20 01:31 29.88639 -81.70956 2470 ft 154 kts 203°
2026-04-20 01:31 29.87635 -81.71400 2480 ft 158 kts 202°
2026-04-20 01:32 29.86566 -81.71878 2486 ft 176 kts 202°
2026-04-20 01:32 29.85394 -81.72403 2485 ft 184 kts 203°
2026-04-20 01:32 29.84192 -81.72931 2487 ft 186 kts 202°
2026-04-20 01:32 29.82982 -81.73462 2492 ft 186 kts 201°
2026-04-20 01:33 29.81770 -81.73995 2488 ft 185 kts 202°
2026-04-20 01:33 29.80573 -81.74524 2491 ft 185 kts 202°
2026-04-20 01:33 29.79362 -81.75056 2479 ft 187 kts 202°
2026-04-20 01:33 29.78150 -81.75592 2483 ft 185 kts 202°
2026-04-20 01:34 29.76941 -81.76124 2488 ft 187 kts 201°
2026-04-20 01:34 29.75721 -81.76662 2489 ft 187 kts 201°
2026-04-20 01:34 29.74520 -81.77191 2489 ft 187 kts 202°
2026-04-20 01:34 29.73301 -81.77729 2481 ft 188 kts 201°
2026-04-20 01:35 29.72080 -81.78270 2488 ft 188 kts 201°
2026-04-20 01:35 29.70860 -81.78807 2480 ft 188 kts 202°
2026-04-20 01:35 29.69639 -81.79343 2486 ft 187 kts 201°
2026-04-20 01:35 29.68423 -81.79877 2481 ft 187 kts 201°
2026-04-20 01:36 29.67202 -81.80412 2476 ft 188 kts 201°
2026-04-20 01:36 29.65975 -81.80952 2498 ft 189 kts 201°
2026-04-20 01:36 29.64746 -81.81493 2502 ft 189 kts 202°
2026-04-20 01:36 29.63507 -81.82037 2499 ft 191 kts 201°
2026-04-20 01:37 29.62270 -81.82582 2503 ft 189 kts 201°
2026-04-20 01:37 29.61040 -81.83123 2505 ft 188 kts 201°
2026-04-20 01:37 29.59838 -81.83651 2503 ft 187 kts 202°
2026-04-20 01:37 29.58616 -81.84173 2498 ft 187 kts 200°
2026-04-20 01:38 29.57400 -81.84665 2501 ft 186 kts 200°
2026-04-20 01:38 29.56172 -81.85165 2499 ft 187 kts 199°
2026-04-20 01:38 29.54948 -81.85669 2499 ft 185 kts 199°
2026-04-20 01:38 29.53727 -81.86170 2501 ft 187 kts 199°
2026-04-20 01:39 29.52500 -81.86676 2498 ft 187 kts 199°
2026-04-20 01:39 29.51289 -81.87176 2498 ft 187 kts 199°
2026-04-20 01:39 29.50049 -81.87685 2498 ft 187 kts 199°
2026-04-20 01:39 29.48827 -81.88187 2499 ft 186 kts 199°
2026-04-20 01:40 29.47616 -81.88685 2501 ft 188 kts 199°
2026-04-20 01:40 29.46388 -81.89190 2487 ft 186 kts 199°
2026-04-20 01:40 29.45169 -81.89690 2499 ft 187 kts 199°
2026-04-20 01:40 29.43941 -81.90195 2497 ft 188 kts 199°
2026-04-20 01:41 29.42707 -81.90700 2496 ft 189 kts 199°
2026-04-20 01:41 29.41468 -81.91209 2499 ft 190 kts 199°
2026-04-20 01:41 29.40217 -81.91726 2496 ft 191 kts 199°
2026-04-20 01:41 29.38962 -81.92243 2497 ft 190 kts 198°
2026-04-20 01:42 29.37718 -81.92751 2501 ft 190 kts 199°
2026-04-20 01:42 29.36466 -81.93263 2502 ft 191 kts 199°
2026-04-20 01:42 29.35222 -81.93776 2497 ft 189 kts 199°
2026-04-20 01:42 29.34002 -81.94273 2499 ft 188 kts 199°
2026-04-20 01:43 29.32767 -81.94780 2495 ft 188 kts 199°
2026-04-20 01:43 29.31534 -81.95283 2499 ft 188 kts 199°
2026-04-20 01:43 29.30297 -81.95792 2502 ft 188 kts 200°
2026-04-20 01:43 29.29069 -81.96297 2506 ft 188 kts 199°
2026-04-20 01:44 29.27819 -81.96805 2510 ft 191 kts 199°
2026-04-20 01:44 29.26568 -81.97317 2538 ft 190 kts 199°
2026-04-20 01:44 29.25357 -81.97811 2775 ft 185 kts 198°
2026-04-20 01:44 29.24150 -81.98304 3021 ft 183 kts 199°
2026-04-20 01:45 29.22951 -81.98794 3271 ft 182 kts 198°
2026-04-20 01:45 29.21762 -81.99280 3517 ft 181 kts 199°
2026-04-20 01:45 29.20581 -81.99763 3761 ft 179 kts 199°
2026-04-20 01:45 29.19413 -82.00242 4006 ft 177 kts 199°
2026-04-20 01:46 29.18257 -82.00714 4254 ft 176 kts 199°
2026-04-20 01:46 29.17109 -82.01183 4491 ft 176 kts 200°
2026-04-20 01:46 29.15923 -82.01671 4502 ft 185 kts 200°
2026-04-20 01:46 29.14694 -82.02175 4501 ft 189 kts 200°
2026-04-20 01:47 29.13470 -82.02674 4503 ft 190 kts 200°
2026-04-20 01:47 29.12223 -82.03182 4502 ft 190 kts 200°
2026-04-20 01:47 29.10983 -82.03688 4502 ft 188 kts 200°
2026-04-20 01:47 29.09754 -82.04189 4502 ft 187 kts 199°
2026-04-20 01:48 29.08527 -82.04687 4501 ft 187 kts 199°
2026-04-20 01:48 29.07302 -82.05186 4498 ft 186 kts 200°
2026-04-20 01:48 29.06077 -82.05687 4498 ft 186 kts 199°
2026-04-20 01:48 29.04860 -82.06183 4499 ft 185 kts 199°
2026-04-20 01:49 29.03650 -82.06673 4499 ft 185 kts 199°
2026-04-20 01:49 29.02434 -82.07167 4499 ft 185 kts 200°
2026-04-20 01:49 29.01217 -82.07662 4499 ft 186 kts 199°
2026-04-20 01:49 29.00007 -82.08158 4499 ft 183 kts 199°
2026-04-20 01:50 28.98807 -82.08646 4495 ft 183 kts 199°
2026-04-20 01:50 28.97614 -82.09130 4495 ft 181 kts 199°
2026-04-20 01:50 28.96442 -82.09606 4494 ft 181 kts 199°
2026-04-20 01:50 28.95254 -82.10088 4495 ft 181 kts 199°
2026-04-20 01:51 28.94061 -82.10574 4496 ft 182 kts 199°
2026-04-20 01:51 28.92864 -82.11060 4495 ft 182 kts 199°
2026-04-20 01:51 28.91671 -82.11546 4494 ft 182 kts 199°
2026-04-20 01:51 28.90480 -82.12030 4494 ft 181 kts 199°
2026-04-20 01:52 28.89295 -82.12510 4494 ft 181 kts 199°
2026-04-20 01:52 28.88117 -82.12988 4493 ft 182 kts 199°
2026-04-20 01:52 28.86912 -82.13477 4491 ft 181 kts 199°
2026-04-20 01:52 28.85722 -82.13961 4491 ft 181 kts 199°
2026-04-20 01:53 28.84545 -82.14438 4491 ft 181 kts 199°
2026-04-20 01:53 28.83356 -82.14921 4489 ft 181 kts 199°
2026-04-20 01:53 28.82173 -82.15401 4507 ft 180 kts 199°
2026-04-20 01:53 28.80991 -82.15878 4509 ft 180 kts 199°
2026-04-20 01:54 28.79805 -82.16359 4509 ft 182 kts 199°
2026-04-20 01:54 28.78612 -82.16843 4508 ft 182 kts 199°
2026-04-20 01:54 28.77421 -82.17328 4474 ft 183 kts 199°
2026-04-20 01:54 28.76236 -82.17810 4404 ft 178 kts 199°
2026-04-20 01:55 28.75080 -82.18276 4352 ft 175 kts 199°
2026-04-20 01:55 28.73924 -82.18740 4298 ft 176 kts 199°
2026-04-20 01:55 28.72788 -82.19204 4250 ft 175 kts 198°
2026-04-20 01:55 28.71645 -82.19667 4201 ft 173 kts 198°
2026-04-20 01:56 28.70516 -82.20123 4149 ft 171 kts 198°
2026-04-20 01:56 28.69393 -82.20576 4100 ft 171 kts 199°
2026-04-20 01:56 28.68269 -82.21031 4050 ft 171 kts 199°
2026-04-20 01:56 28.67148 -82.21483 3999 ft 171 kts 198°
2026-04-20 01:57 28.66020 -82.21939 3950 ft 171 kts 199°
2026-04-20 01:57 28.64907 -82.22388 3901 ft 172 kts 199°
2026-04-20 01:57 28.63774 -82.22846 3851 ft 173 kts 199°
2026-04-20 01:57 28.62638 -82.23306 3800 ft 173 kts 199°
2026-04-20 01:58 28.61504 -82.23764 3753 ft 172 kts 199°
2026-04-20 01:58 28.60378 -82.24219 3704 ft 171 kts 199°
2026-04-20 01:58 28.59250 -82.24673 3654 ft 173 kts 199°
2026-04-20 01:58 28.58115 -82.25132 3596 ft 173 kts 200°
2026-04-20 01:59 28.56992 -82.25584 3549 ft 174 kts 199°
2026-04-20 01:59 28.55854 -82.26044 3501 ft 174 kts 200°
2026-04-20 01:59 28.54718 -82.26503 3454 ft 173 kts 200°
2026-04-20 01:59 28.53581 -82.26961 3404 ft 173 kts 200°
2026-04-20 02:00 28.52450 -82.27423 3352 ft 173 kts 201°
2026-04-20 02:00 28.51324 -82.27904 3303 ft 173 kts 201°
2026-04-20 02:00 28.50198 -82.28383 3256 ft 173 kts 201°
2026-04-20 02:00 28.49065 -82.28863 3207 ft 174 kts 201°
2026-04-20 02:01 28.47925 -82.29345 3161 ft 175 kts 201°
2026-04-20 02:01 28.46785 -82.29827 3110 ft 175 kts 201°
2026-04-20 02:01 28.45642 -82.30310 3060 ft 176 kts 201°
2026-04-20 02:01 28.44494 -82.30794 3008 ft 176 kts 201°
2026-04-20 02:02 28.43368 -82.31272 2975 ft 175 kts 200°
2026-04-20 02:02 28.42224 -82.31753 2902 ft 176 kts 201°
2026-04-20 02:02 28.41063 -82.32245 2781 ft 179 kts 201°
2026-04-20 02:02 28.39895 -82.32740 2659 ft 179 kts 201°
2026-04-20 02:03 28.38725 -82.33235 2536 ft 180 kts 201°
2026-04-20 02:03 28.37605 -82.33828 2505 ft 173 kts 204°
2026-04-20 02:03 28.36514 -82.34235 2678 ft 166 kts 199°
2026-04-20 02:03 28.35394 -82.34694 2573 ft 174 kts 201°
2026-04-20 02:04 28.34250 -82.35162 2525 ft 175 kts 200°
2026-04-20 02:04 28.33095 -82.35616 2476 ft 176 kts 200°
2026-04-20 02:04 28.31934 -82.36071 2429 ft 177 kts 200°
2026-04-20 02:04 28.30768 -82.36527 2378 ft 178 kts 200°
2026-04-20 02:05 28.29598 -82.36987 2325 ft 178 kts 200°
2026-04-20 02:05 28.28424 -82.37446 2276 ft 179 kts 200°
2026-04-20 02:05 28.27249 -82.37908 2226 ft 179 kts 200°
2026-04-20 02:05 28.26084 -82.38362 2178 ft 179 kts 200°
2026-04-20 02:06 28.24902 -82.38825 2129 ft 180 kts 200°
2026-04-20 02:06 28.23714 -82.39291 2083 ft 181 kts 201°
2026-04-20 02:06 28.22525 -82.39756 2036 ft 180 kts 201°
2026-04-20 02:06 28.21319 -82.40227 2041 ft 187 kts 200°
2026-04-20 02:07 28.20071 -82.40717 2041 ft 192 kts 200°
2026-04-20 02:07 28.18801 -82.41216 2043 ft 194 kts 200°
2026-04-20 02:07 28.17516 -82.41717 2042 ft 196 kts 199°
2026-04-20 02:07 28.16230 -82.42218 2042 ft 196 kts 200°
2026-04-20 02:08 28.14942 -82.42719 2037 ft 194 kts 201°
2026-04-20 02:08 28.13671 -82.43220 2036 ft 192 kts 200°
2026-04-20 02:08 28.12409 -82.43710 2030 ft 191 kts 200°
2026-04-20 02:08 28.11171 -82.44194 2029 ft 190 kts 200°
2026-04-20 02:09 28.09923 -82.44681 2028 ft 190 kts 200°
2026-04-20 02:09 28.08668 -82.45172 2026 ft 190 kts 200°
2026-04-20 02:09 28.07422 -82.45658 2026 ft 189 kts 200°
2026-04-20 02:09 28.06182 -82.46141 2017 ft 185 kts 200°
2026-04-20 02:10 28.05052 -82.46585 1862 ft 159 kts 201°
2026-04-20 02:10 28.04393 -82.46843 1761 ft 144 kts 201°
2026-04-20 02:10 28.03412 -82.47226 1581 ft 128 kts 201°
2026-04-20 02:10 28.02610 -82.47540 1425 ft 120 kts 201°
2026-04-20 02:11 28.01845 -82.47838 1271 ft 113 kts 202°
2026-04-20 02:11 28.01120 -82.48120 1129 ft 109 kts 202°
2026-04-20 02:11 28.00411 -82.48396 990 ft 106 kts 202°
2026-04-20 02:11 27.99761 -82.48645 971 ft 94 kts 202°
2026-04-20 02:12 27.99090 -82.48826 1147 ft 108 kts 195°
2026-04-20 02:12 27.98351 -82.49121 1526 ft 117 kts 205°
2026-04-20 02:12 27.97566 -82.49480 1601 ft 132 kts 207°
2026-04-20 02:12 27.96637 -82.49890 1454 ft 152 kts 202°
2026-04-20 02:13 27.95594 -82.50297 1312 ft 164 kts 200°
2026-04-20 02:13 27.94504 -82.50707 1087 ft 160 kts 200°
2026-04-20 02:13 27.93505 -82.51085 979 ft 140 kts 201°
2026-04-20 02:13 27.92681 -82.51404 974 ft 113 kts 202°
2026-04-20 02:14 27.91999 -82.51668 965 ft 97 kts 205°
2026-04-20 02:14 27.91624 -82.52220 823 ft 91 kts 272°
2026-04-20 02:14 27.91761 -82.52770 887 ft 73 kts 308°
2026-04-20 02:14 27.92199 -82.53070 828 ft 83 kts 358°
2026-04-20 02:15 27.92799 -82.53023 754 ft 87 kts 359°
2026-04-20 02:15 27.93377 -82.53010 682 ft 85 kts
2026-04-20 02:15 27.93953 -82.52985 592 ft 76 kts
2026-04-20 02:15 27.94446 -82.52968 431 ft 69 kts 359°
2026-04-20 02:16 27.95002 -82.52961 411 ft 89 kts
2026-04-20 02:16 27.95628 -82.52926 307 ft 86 kts
2026-04-20 02:16 27.96171 -82.52895 109 ft 68 kts 359°
2026-04-20 02:16 27.96588 -82.52896 37 ft 55 kts 353°
2026-04-20 02:17 27.96948 -82.52890 34 ft 46 kts
2026-04-20 02:17 27.97065 -82.52914 34 ft 16 kts 279°
2026-04-20 02:17 27.97185 -82.53084 33 ft 23 kts 306°
2026-04-20 02:17 27.97198 -82.53258 33 ft 31 kts 275°
2026-04-20 02:18 27.97305 -82.53382 34 ft 15 kts 275°
2026-04-20 02:18 27.97326 -82.53504 31 ft 18 kts 275°
2026-04-20 02:18 27.97379 -82.53681 21 ft 28 kts 296°
2026-04-20 02:18 27.97516 -82.53797 30 ft 28 kts 343°
2026-04-20 02:19 27.97648 -82.53846 32 ft 14 kts 43°
2026-04-20 02:19 27.97656 -82.53840 32 ft 0 kts 31°